GFSFLT2_prec_precacc24_021.txt.gz
Total_Precipitation_Accumulation
0.08 0.11 0.11 0.10 0.08 0.09 0.08 0.05 0.04 0.05 0.06 0.08 0.11 0.13 0.13 0.13 0.15 0.16 0.19 0.22 0.25 0.28 0.26 0.22 0.22 0.16 0.10
0.11 0.13 0.12 0.11 0.10 0.12 0.12 0.12 0.13 0.11 0.13 0.12 0.14 0.17 0.20 0.20 0.20 0.18 0.17 0.18 0.24 0.33 0.36 0.37 0.36 0.33 0.27
0.20 0.14 0.09 0.11 0.15 0.19 0.19 0.18 0.18 0.22 0.27 0.26 0.28 0.32 0.35 0.35 0.34 0.37 0.41 0.41 0.40 0.37 0.40 0.47 0.55 0.60 0.50
0.23 0.13 0.14 0.15 0.21 0.25 0.25 0.26 0.29 0.30 0.33 0.32 0.31 0.30 0.31 0.36 0.41 0.42 0.43 0.44 0.49 0.56 0.61 0.61 0.59 0.60 0.64
0.34 0.35 0.39 0.39 0.38 0.39 0.44 0.36 0.31 0.24 0.20 0.21 0.25 0.31 0.32 0.35 0.39 0.37 0.40 0.48 0.55 0.57 0.56 0.61 0.65 0.69 0.68
0.49 0.51 0.42 0.41 0.37 0.40 0.47 0.56 0.49 0.28 0.25 0.33 0.38 0.46 0.45 0.46 0.44 0.41 0.40 0.40 0.41 0.44 0.48 0.47 0.47 0.50 0.57
0.45 0.40 0.37 0.31 0.30 0.35 0.42 0.49 0.45 0.31 0.36 0.44 0.36 0.39 0.40 0.45 0.53 0.46 0.46 0.44 0.42 0.42 0.43 0.42 0.40 0.45 0.49
0.31 0.33 0.37 0.46 0.62 0.72 0.76 0.80 0.63 0.44 0.39 0.38 0.27 0.33 0.37 0.44 0.56 0.45 0.38 0.37 0.40 0.39 0.38 0.40 0.43 0.46 0.44
0.32 0.40 0.40 0.36 0.40 0.53 0.62 0.57 0.55 0.37 0.29 0.32 0.29 0.32 0.38 0.38 0.45 0.45 0.35 0.33 0.36 0.38 0.37 0.39 0.40 0.42 0.44
0.33 0.39 0.39 0.38 0.43 0.42 0.58 0.83 0.77 0.59 0.36 0.43 0.44 0.42 0.47 0.35 0.38 0.49 0.46 0.41 0.39 0.37 0.34 0.31 0.33 0.33 0.33
0.32 0.36 0.39 0.39 0.43 0.58 0.82 1.13 1.12 0.86 0.52 0.60 0.58 0.46 0.49 0.40 0.41 0.50 0.42 0.44 0.44 0.42 0.37 0.32 0.26 0.22 0.25
0.45 0.50 0.49 0.48 0.56 0.63 0.68 0.74 0.75 0.75 0.60 0.60 0.65 0.48 0.47 0.49 0.47 0.54 0.53 0.43 0.31 0.29 0.26 0.28 0.25 0.20 0.17
0.74 0.78 0.71 0.76 0.78 0.71 0.64 0.60 0.59 0.63 0.63 0.56 0.55 0.58 0.51 0.43 0.36 0.43 0.47 0.47 0.36 0.27 0.23 0.20 0.15 0.12 0.10
0.49 0.54 0.65 0.68 0.64 0.73 0.82 0.80 0.79 0.74 0.60 0.48 0.43 0.39 0.30 0.27 0.26 0.35 0.33 0.31 0.35 0.29 0.21 0.17 0.13 0.09 0.05
0.41 0.47 0.63 0.72 0.74 0.82 0.92 0.86 0.68 0.56 0.48 0.38 0.29 0.23 0.19 0.19 0.22 0.27 0.27 0.24 0.24 0.23 0.18 0.16 0.16 0.10 0.05
0.47 0.52 0.61 0.73 0.88 1.04 1.05 0.78 0.55 0.43 0.35 0.28 0.23 0.16 0.15 0.14 0.16 0.19 0.17 0.15 0.17 0.14 0.10 0.08 0.10 0.08 0.02
0.71 0.69 0.70 0.81 0.94 0.97 0.79 0.54 0.38 0.25 0.14 0.07 0.05 0.05 0.07 0.06 0.06 0.06 0.05 0.06 0.08 0.08 0.06 0.02 0.02 0.02 0.00

GFSFLT2_prec_precacc24_024.txt.gz
Total_Precipitation_Accumulation
0.08 0.11 0.11 0.10 0.08 0.09 0.08 0.05 0.04 0.05 0.06 0.08 0.11 0.13 0.14 0.13 0.15 0.16 0.19 0.24 0.28 0.33 0.40 0.48 0.54 0.51 0.41
0.11 0.14 0.12 0.11 0.10 0.12 0.12 0.12 0.13 0.11 0.13 0.12 0.14 0.17 0.20 0.21 0.20 0.19 0.17 0.19 0.26 0.35 0.41 0.44 0.49 0.56 0.62
0.20 0.14 0.09 0.11 0.15 0.19 0.19 0.18 0.18 0.22 0.27 0.26 0.28 0.32 0.35 0.35 0.34 0.37 0.41 0.42 0.40 0.38 0.41 0.49 0.58 0.65 0.64
0.25 0.14 0.14 0.15 0.21 0.26 0.25 0.26 0.29 0.30 0.33 0.32 0.31 0.30 0.31 0.36 0.41 0.42 0.43 0.44 0.49 0.57 0.62 0.62 0.60 0.61 0.66
0.37 0.37 0.39 0.39 0.39 0.39 0.45 0.37 0.31 0.24 0.20 0.22 0.26 0.31 0.32 0.35 0.39 0.37 0.40 0.49 0.56 0.58 0.56 0.61 0.66 0.69 0.69
0.52 0.53 0.43 0.41 0.37 0.40 0.48 0.58 0.51 0.28 0.26 0.34 0.39 0.47 0.46 0.46 0.44 0.41 0.40 0.40 0.41 0.44 0.49 0.48 0.47 0.51 0.57
0.46 0.42 0.39 0.31 0.31 0.37 0.45 0.54 0.49 0.32 0.37 0.45 0.37 0.40 0.40 0.45 0.53 0.46 0.46 0.44 0.43 0.43 0.43 0.42 0.40 0.45 0.49
0.32 0.34 0.37 0.47 0.65 0.78 0.83 0.84 0.65 0.45 0.40 0.44 0.28 0.33 0.37 0.44 0.56 0.45 0.38 0.38 0.40 0.39 0.39 0.40 0.43 0.46 0.44
0.33 0.41 0.41 0.37 0.40 0.56 0.68 0.62 0.59 0.38 0.30 0.35 0.31 0.34 0.40 0.39 0.45 0.45 0.36 0.34 0.37 0.38 0.38 0.39 0.40 0.42 0.45
0.33 0.39 0.39 0.38 0.43 0.44 0.69 0.95 0.83 0.63 0.37 0.48 0.47 0.44 0.51 0.35 0.39 0.50 0.46 0.42 0.39 0.37 0.34 0.32 0.34 0.34 0.33
0.32 0.37 0.39 0.39 0.44 0.59 0.86 1.24 1.23 0.92 0.53 0.65 0.64 0.47 0.56 0.42 0.41 0.50 0.42 0.44 0.44 0.42 0.39 0.35 0.28 0.23 0.27
0.45 0.51 0.49 0.49 0.57 0.63 0.69 0.75 0.78 0.81 0.62 0.65 0.74 0.49 0.50 0.51 0.48 0.55 0.54 0.47 0.35 0.32 0.28 0.34 0.37 0.34 0.30
0.75 0.78 0.72 0.76 0.79 0.71 0.65 0.61 0.62 0.65 0.67 0.62 0.60 0.61 0.56 0.46 0.38 0.45 0.52 0.60 0.46 0.30 0.26 0.23 0.21 0.23 0.28
0.53 0.55 0.66 0.69 0.65 0.74 0.87 0.84 0.85 0.79 0.65 0.53 0.48 0.46 0.35 0.32 0.32 0.40 0.42 0.48 0.51 0.38 0.28 0.27 0.28 0.25 0.19
0.44 0.49 0.65 0.74 0.76 0.85 1.00 0.93 0.75 0.62 0.53 0.43 0.33 0.30 0.28 0.26 0.28 0.34 0.38 0.40 0.41 0.37 0.25 0.23 0.27 0.19 0.15
0.51 0.56 0.67 0.78 0.94 1.10 1.13 0.85 0.62 0.49 0.42 0.35 0.28 0.23 0.22 0.19 0.23 0.28 0.30 0.34 0.34 0.27 0.16 0.11 0.17 0.18 0.12
0.77 0.77 0.77 0.89 1.03 1.05 0.85 0.60 0.42 0.27 0.15 0.09 0.08 0.12 0.16 0.14 0.16 0.18 0.16 0.20 0.18 0.18 0.14 0.06 0.07 0.10 0.06

GFSFLT2_prec_precacc24_027.txt.gz
Total_Precipitation_Accumulation
0.05 0.09 0.11 0.10 0.08 0.09 0.08 0.05 0.04 0.05 0.06 0.08 0.11 0.13 0.14 0.13 0.15 0.16 0.19 0.24 0.29 0.34 0.42 0.51 0.61 0.63 0.56
0.07 0.11 0.11 0.11 0.10 0.12 0.12 0.12 0.13 0.11 0.13 0.12 0.14 0.17 0.20 0.21 0.20 0.19 0.17 0.19 0.26 0.35 0.41 0.45 0.51 0.61 0.70
0.15 0.11 0.08 0.10 0.15 0.19 0.19 0.18 0.18 0.22 0.27 0.26 0.28 0.32 0.35 0.35 0.34 0.37 0.41 0.42 0.41 0.38 0.41 0.49 0.58 0.65 0.66
0.19 0.12 0.11 0.13 0.21 0.25 0.25 0.26 0.29 0.30 0.33 0.32 0.31 0.30 0.31 0.36 0.41 0.43 0.43 0.45 0.50 0.57 0.62 0.62 0.60 0.61 0.66
0.29 0.33 0.36 0.36 0.36 0.39 0.45 0.37 0.31 0.24 0.20 0.22 0.26 0.31 0.32 0.35 0.40 0.37 0.40 0.49 0.56 0.58 0.57 0.62 0.66 0.70 0.69
0.46 0.47 0.37 0.37 0.35 0.40 0.48 0.58 0.51 0.29 0.27 0.35 0.40 0.47 0.46 0.46 0.44 0.41 0.40 0.40 0.41 0.44 0.49 0.48 0.47 0.51 0.58
0.32 0.32 0.33 0.28 0.29 0.37 0.47 0.56 0.51 0.32 0.38 0.46 0.37 0.40 0.40 0.46 0.53 0.46 0.46 0.45 0.43 0.43 0.43 0.43 0.41 0.45 0.50
0.22 0.27 0.33 0.44 0.64 0.80 0.86 0.86 0.66 0.45 0.41 0.47 0.30 0.34 0.37 0.44 0.56 0.46 0.39 0.38 0.41 0.40 0.39 0.40 0.43 0.46 0.44
0.26 0.36 0.39 0.36 0.40 0.56 0.71 0.65 0.61 0.38 0.31 0.38 0.33 0.36 0.41 0.39 0.45 0.46 0.37 0.36 0.40 0.41 0.40 0.41 0.41 0.43 0.45
0.24 0.32 0.34 0.35 0.42 0.44 0.72 1.05 0.87 0.65 0.38 0.52 0.50 0.46 0.53 0.36 0.39 0.51 0.47 0.43 0.41 0.38 0.35 0.33 0.35 0.34 0.34
0.18 0.26 0.32 0.35 0.43 0.59 0.87 1.30 1.32 0.97 0.53 0.68 0.71 0.49 0.59 0.44 0.41 0.50 0.42 0.44 0.44 0.42 0.39 0.35 0.28 0.23 0.27
0.27 0.38 0.41 0.46 0.55 0.63 0.68 0.76 0.80 0.87 0.64 0.68 0.84 0.54 0.54 0.52 0.48 0.55 0.54 0.47 0.36 0.34 0.29 0.34 0.39 0.40 0.36
0.44 0.64 0.68 0.73 0.77 0.69 0.65 0.61 0.63 0.67 0.71 0.70 0.69 0.65 0.58 0.48 0.39 0.45 0.53 0.64 0.53 0.35 0.29 0.24 0.21 0.25 0.35
0.51 0.51 0.63 0.66 0.64 0.75 0.91 0.87 0.91 0.82 0.69 0.58 0.54 0.51 0.38 0.34 0.35 0.42 0.45 0.55 0.64 0.50 0.36 0.34 0.33 0.29 0.22
0.43 0.48 0.65 0.73 0.75 0.88 1.08 0.99 0.80 0.66 0.56 0.46 0.36 0.34 0.34 0.32 0.32 0.39 0.41 0.47 0.59 0.56 0.35 0.40 0.48 0.41 0.33
0.53 0.59 0.70 0.78 0.96 1.16 1.16 0.88 0.64 0.51 0.44 0.37 0.31 0.26 0.28 0.25 0.29 0.34 0.36 0.44 0.56 0.50 0.34 0.19 0.32 0.39 0.31
0.78 0.79 0.77 0.88 1.05 1.06 0.86 0.61 0.43 0.27 0.16 0.10 0.12 0.19 0.22 0.18 0.22 0.26 0.24 0.32 0.32 0.30 0.23 0.11 0.12 0.22 0.19

GFSFLT2_prec_precacc24_030.txt.gz
Total_Precipitation_Accumulation
0.03 0.05 0.06 0.04 0.03 0.07 0.07 0.05 0.04 0.05 0.06 0.08 0.11 0.13 0.14 0.13 0.15 0.16 0.19 0.24 0.29 0.34 0.42 0.51 0.62 0.65 0.59
0.02 0.03 0.04 0.04 0.04 0.07 0.08 0.11 0.12 0.11 0.13 0.12 0.14 0.17 0.20 0.21 0.20 0.19 0.18 0.19 0.26 0.36 0.41 0.45 0.51 0.61 0.71
0.11 0.06 0.05 0.05 0.06 0.10 0.13 0.16 0.17 0.22 0.27 0.26 0.28 0.32 0.35 0.35 0.34 0.38 0.42 0.43 0.41 0.39 0.42 0.49 0.58 0.66 0.66
0.16 0.09 0.09 0.10 0.15 0.19 0.20 0.22 0.26 0.29 0.33 0.32 0.31 0.30 0.32 0.37 0.43 0.44 0.44 0.46 0.51 0.59 0.64 0.63 0.61 0.62 0.66
0.25 0.31 0.37 0.33 0.27 0.29 0.37 0.32 0.29 0.24 0.20 0.22 0.26 0.31 0.32 0.35 0.40 0.37 0.40 0.50 0.57 0.60 0.59 0.64 0.68 0.70 0.69
0.40 0.41 0.32 0.31 0.27 0.31 0.39 0.51 0.50 0.29 0.27 0.35 0.40 0.47 0.46 0.46 0.44 0.42 0.42 0.43 0.44 0.46 0.49 0.49 0.48 0.51 0.58
0.16 0.20 0.26 0.21 0.21 0.26 0.39 0.52 0.50 0.32 0.39 0.46 0.38 0.40 0.41 0.46 0.53 0.47 0.47 0.46 0.44 0.45 0.45 0.44 0.42 0.45 0.50
0.06 0.08 0.14 0.23 0.48 0.72 0.80 0.79 0.60 0.41 0.40 0.48 0.30 0.35 0.37 0.44 0.57 0.47 0.40 0.39 0.42 0.41 0.40 0.41 0.44 0.47 0.45
0.08 0.17 0.20 0.20 0.25 0.44 0.66 0.63 0.58 0.37 0.31 0.38 0.33 0.36 0.41 0.39 0.45 0.46 0.41 0.41 0.44 0.44 0.42 0.42 0.42 0.44 0.46
0.04 0.05 0.06 0.11 0.21 0.29 0.61 0.97 0.79 0.63 0.37 0.53 0.52 0.46 0.56 0.36 0.39 0.53 0.49 0.43 0.41 0.39 0.36 0.34 0.37 0.36 0.35
0.02 0.04 0.06 0.10 0.16 0.27 0.63 1.22 1.35 1.01 0.53 0.73 0.79 0.51 0.63 0.45 0.41 0.50 0.42 0.44 0.44 0.42 0.39 0.35 0.28 0.24 0.27
0.04 0.07 0.09 0.16 0.29 0.42 0.54 0.71 0.83 0.95 0.68 0.74 0.97 0.59 0.62 0.56 0.49 0.55 0.54 0.47 0.37 0.35 0.29 0.35 0.39 0.40 0.36
0.18 0.21 0.25 0.42 0.54 0.57 0.58 0.58 0.64 0.69 0.77 0.76 0.77 0.69 0.61 0.49 0.40 0.45 0.55 0.65 0.60 0.47 0.35 0.24 0.22 0.25 0.36
0.40 0.30 0.39 0.53 0.56 0.71 0.86 0.81 0.91 0.83 0.70 0.59 0.56 0.53 0.40 0.36 0.38 0.44 0.47 0.58 0.70 0.63 0.47 0.37 0.35 0.29 0.22
0.31 0.33 0.46 0.63 0.70 0.82 1.03 0.96 0.83 0.68 0.58 0.46 0.37 0.35 0.35 0.38 0.37 0.43 0.45 0.52 0.69 0.75 0.55 0.55 0.58 0.48 0.38
0.29 0.35 0.52 0.70 0.86 1.04 1.10 0.89 0.69 0.54 0.46 0.38 0.33 0.27 0.29 0.28 0.34 0.40 0.43 0.50 0.67 0.68 0.57 0.33 0.49 0.61 0.53
0.45 0.51 0.59 0.76 0.92 0.99 0.86 0.63 0.45 0.30 0.18 0.11 0.16 0.23 0.25 0.21 0.26 0.35 0.31 0.38 0.39 0.40 0.35 0.16 0.21 0.46 0.44

GFSFLT2_prec_precacc24_033.txt.gz
Total_Precipitation_Accumulation
0.03 0.05 0.06 0.04 0.02 0.04 0.03 0.03 0.01 0.02 0.04 0.06 0.09 0.12 0.12 0.12 0.15 0.17 0.20 0.25 0.30 0.35 0.43 0.52 0.63 0.66 0.60
0.01 0.03 0.03 0.03 0.03 0.04 0.04 0.05 0.08 0.08 0.09 0.08 0.09 0.13 0.18 0.20 0.20 0.19 0.18 0.20 0.27 0.37 0.43 0.47 0.53 0.62 0.73
0.06 0.03 0.02 0.03 0.05 0.06 0.07 0.07 0.07 0.09 0.13 0.20 0.23 0.26 0.32 0.34 0.34 0.38 0.43 0.45 0.44 0.42 0.45 0.52 0.61 0.68 0.68
0.12 0.08 0.04 0.07 0.13 0.15 0.14 0.15 0.18 0.19 0.18 0.24 0.26 0.28 0.29 0.36 0.42 0.44 0.45 0.46 0.51 0.59 0.65 0.65 0.62 0.63 0.68
0.12 0.14 0.14 0.15 0.16 0.20 0.29 0.23 0.19 0.13 0.10 0.14 0.20 0.26 0.30 0.33 0.37 0.36 0.40 0.50 0.58 0.61 0.61 0.67 0.71 0.73 0.72
0.30 0.16 0.03 0.03 0.08 0.15 0.22 0.26 0.30 0.21 0.21 0.25 0.32 0.40 0.42 0.43 0.42 0.42 0.43 0.44 0.47 0.49 0.54 0.52 0.50 0.53 0.59
0.06 0.05 0.05 0.03 0.11 0.19 0.25 0.32 0.26 0.18 0.27 0.32 0.26 0.30 0.31 0.41 0.52 0.47 0.48 0.47 0.46 0.47 0.47 0.46 0.43 0.46 0.50
0.04 0.05 0.07 0.10 0.22 0.34 0.35 0.28 0.27 0.23 0.25 0.35 0.22 0.28 0.32 0.43 0.56 0.47 0.40 0.40 0.44 0.44 0.42 0.43 0.45 0.48 0.45
0.06 0.08 0.08 0.06 0.06 0.16 0.33 0.33 0.31 0.18 0.19 0.29 0.27 0.31 0.37 0.38 0.45 0.46 0.41 0.44 0.48 0.48 0.45 0.45 0.45 0.45 0.47
0.02 0.02 0.01 0.01 0.04 0.13 0.46 0.79 0.52 0.40 0.22 0.45 0.47 0.41 0.57 0.35 0.39 0.53 0.49 0.43 0.41 0.39 0.36 0.35 0.37 0.37 0.36
0.01 0.01 0.01 0.02 0.04 0.13 0.38 0.91 1.05 0.72 0.30 0.65 0.78 0.50 0.67 0.47 0.41 0.50 0.42 0.44 0.44 0.42 0.39 0.35 0.28 0.24 0.28
0.03 0.03 0.04 0.05 0.07 0.12 0.24 0.44 0.62 0.80 0.52 0.68 1.00 0.62 0.66 0.57 0.49 0.55 0.54 0.47 0.38 0.35 0.29 0.35 0.40 0.41 0.36
0.11 0.07 0.09 0.16 0.23 0.30 0.35 0.41 0.50 0.57 0.67 0.75 0.82 0.73 0.64 0.51 0.41 0.46 0.57 0.66 0.65 0.56 0.38 0.25 0.22 0.25 0.36
0.29 0.15 0.18 0.27 0.38 0.55 0.75 0.68 0.75 0.67 0.65 0.61 0.63 0.57 0.41 0.36 0.42 0.47 0.52 0.65 0.75 0.74 0.60 0.41 0.35 0.29 0.22
0.24 0.21 0.23 0.33 0.47 0.64 0.91 0.82 0.72 0.64 0.59 0.47 0.39 0.36 0.35 0.39 0.41 0.48 0.52 0.59 0.77 0.95 0.75 0.61 0.63 0.51 0.40
0.23 0.28 0.38 0.46 0.59 0.73 0.85 0.72 0.65 0.55 0.48 0.39 0.34 0.27 0.30 0.29 0.42 0.51 0.52 0.60 0.79 0.84 0.86 0.42 0.59 0.74 0.62
0.36 0.43 0.45 0.51 0.61 0.72 0.67 0.54 0.44 0.32 0.19 0.11 0.18 0.24 0.27 0.22 0.28 0.48 0.39 0.50 0.49 0.50 0.53 0.29 0.38 0.69 0.61

GFSFLT2_prec_precacc24_036.txt.gz
Total_Precipitation_Accumulation
0.00 0.01 0.02 0.03 0.02 0.03 0.03 0.02 0.01 0.01 0.03 0.05 0.08 0.09 0.09 0.10 0.13 0.15 0.18 0.24 0.30 0.35 0.45 0.54 0.66 0.69 0.63
0.00 0.00 0.00 0.01 0.01 0.03 0.02 0.04 0.04 0.03 0.07 0.06 0.07 0.07 0.07 0.08 0.10 0.13 0.15 0.16 0.25 0.35 0.43 0.48 0.54 0.64 0.74
0.03 0.00 0.01 0.01 0.02 0.03 0.04 0.05 0.05 0.06 0.08 0.09 0.12 0.15 0.16 0.18 0.19 0.23 0.30 0.39 0.43 0.42 0.46 0.54 0.64 0.71 0.71
0.12 0.08 0.02 0.03 0.06 0.05 0.02 0.02 0.01 0.06 0.11 0.09 0.08 0.08 0.12 0.20 0.27 0.29 0.31 0.38 0.48 0.58 0.65 0.65 0.63 0.64 0.69
0.13 0.16 0.15 0.05 0.02 0.02 0.03 0.01 0.01 0.02 0.02 0.04 0.07 0.10 0.13 0.17 0.23 0.23 0.26 0.37 0.49 0.60 0.62 0.69 0.73 0.75 0.74
0.38 0.19 0.03 0.01 0.02 0.03 0.08 0.11 0.09 0.03 0.06 0.04 0.06 0.07 0.09 0.16 0.21 0.24 0.30 0.34 0.43 0.50 0.56 0.55 0.54 0.56 0.62
0.06 0.04 0.05 0.03 0.12 0.20 0.21 0.25 0.19 0.06 0.09 0.08 0.08 0.10 0.10 0.13 0.21 0.24 0.33 0.41 0.44 0.46 0.47 0.47 0.45 0.48 0.53
0.03 0.05 0.07 0.11 0.19 0.28 0.29 0.17 0.07 0.03 0.06 0.18 0.07 0.08 0.09 0.15 0.31 0.30 0.30 0.35 0.41 0.44 0.44 0.45 0.46 0.49 0.47
0.06 0.08 0.08 0.05 0.04 0.16 0.27 0.23 0.19 0.04 0.07 0.16 0.14 0.14 0.16 0.17 0.30 0.36 0.35 0.40 0.48 0.50 0.49 0.51 0.52 0.50 0.49
0.02 0.01 0.01 0.01 0.03 0.12 0.45 0.76 0.43 0.27 0.06 0.29 0.28 0.23 0.39 0.16 0.22 0.41 0.41 0.41 0.41 0.40 0.37 0.36 0.39 0.38 0.37
0.01 0.01 0.01 0.01 0.03 0.09 0.27 0.74 0.88 0.54 0.12 0.50 0.61 0.26 0.43 0.28 0.26 0.42 0.40 0.44 0.45 0.43 0.39 0.35 0.28 0.24 0.28
0.03 0.03 0.03 0.04 0.04 0.04 0.08 0.22 0.42 0.68 0.33 0.50 0.84 0.38 0.46 0.41 0.39 0.52 0.54 0.47 0.41 0.38 0.32 0.37 0.41 0.41 0.37
0.10 0.06 0.05 0.07 0.10 0.16 0.19 0.25 0.36 0.39 0.48 0.54 0.66 0.57 0.54 0.47 0.41 0.46 0.60 0.67 0.71 0.65 0.45 0.28 0.23 0.25 0.36
0.28 0.11 0.07 0.10 0.19 0.33 0.53 0.47 0.54 0.41 0.39 0.48 0.61 0.59 0.41 0.36 0.46 0.50 0.54 0.76 0.85 0.87 0.73 0.45 0.35 0.30 0.22
0.20 0.16 0.12 0.17 0.24 0.39 0.67 0.62 0.56 0.47 0.44 0.42 0.39 0.37 0.36 0.42 0.44 0.54 0.61 0.66 0.86 1.10 0.92 0.67 0.64 0.51 0.40
0.17 0.19 0.29 0.32 0.39 0.47 0.60 0.58 0.54 0.49 0.47 0.40 0.35 0.28 0.30 0.29 0.47 0.64 0.61 0.67 0.89 0.98 1.00 0.44 0.62 0.77 0.62
0.31 0.35 0.36 0.38 0.43 0.49 0.48 0.45 0.41 0.34 0.19 0.13 0.20 0.26 0.29 0.23 0.29 0.60 0.51 0.60 0.60 0.63 0.66 0.37 0.45 0.79 0.64

GFSFLT2_prec_precacc24_039.txt.gz
Total_Precipitation_Accumulation
0.00 0.00 0.00 0.00 0.00 0.00 0.01 0.01 0.00 0.01 0.02 0.02 0.03 0.05 0.07 0.09 0.12 0.14 0.17 0.21 0.26 0.32 0.42 0.53 0.67 0.72 0.67
0.00 0.00 0.00 0.00 0.00 0.01 0.01 0.02 0.02 0.02 0.03 0.02 0.03 0.02 0.02 0.04 0.07 0.09 0.09 0.11 0.17 0.27 0.35 0.43 0.52 0.62 0.74
0.03 0.00 0.00 0.00 0.00 0.01 0.01 0.01 0.01 0.02 0.03 0.03 0.03 0.02 0.02 0.03 0.10 0.16 0.19 0.22 0.23 0.22 0.28 0.40 0.54 0.68 0.74
0.12 0.08 0.03 0.03 0.05 0.04 0.01 0.01 0.01 0.01 0.01 0.00 0.00 0.00 0.00 0.01 0.05 0.10 0.14 0.14 0.18 0.29 0.41 0.48 0.51 0.60 0.68
0.16 0.20 0.17 0.05 0.01 0.01 0.02 0.01 0.01 0.01 0.01 0.01 0.02 0.01 0.01 0.01 0.02 0.02 0.07 0.13 0.19 0.29 0.39 0.53 0.64 0.72 0.73
0.42 0.19 0.03 0.01 0.01 0.03 0.08 0.11 0.08 0.02 0.05 0.04 0.04 0.02 0.00 0.00 0.01 0.02 0.05 0.12 0.17 0.24 0.36 0.44 0.47 0.54 0.64
0.06 0.04 0.04 0.03 0.16 0.22 0.20 0.23 0.17 0.04 0.05 0.06 0.02 0.02 0.01 0.01 0.02 0.03 0.05 0.12 0.18 0.26 0.34 0.40 0.40 0.45 0.52
0.03 0.05 0.08 0.12 0.19 0.29 0.31 0.18 0.07 0.02 0.04 0.18 0.04 0.03 0.01 0.01 0.02 0.04 0.07 0.11 0.19 0.27 0.32 0.35 0.40 0.46 0.46
0.06 0.07 0.07 0.04 0.03 0.21 0.30 0.24 0.18 0.03 0.04 0.13 0.09 0.07 0.05 0.02 0.02 0.10 0.16 0.21 0.27 0.31 0.34 0.42 0.48 0.51 0.51
0.02 0.01 0.00 0.00 0.01 0.12 0.49 0.78 0.40 0.24 0.04 0.26 0.18 0.14 0.32 0.05 0.02 0.13 0.16 0.17 0.21 0.23 0.27 0.31 0.38 0.40 0.43
0.00 0.01 0.01 0.01 0.02 0.08 0.26 0.71 0.83 0.47 0.04 0.45 0.52 0.14 0.30 0.14 0.06 0.13 0.14 0.22 0.29 0.33 0.34 0.33 0.28 0.25 0.30
0.02 0.02 0.02 0.03 0.03 0.03 0.06 0.18 0.36 0.66 0.27 0.39 0.78 0.31 0.39 0.24 0.16 0.22 0.28 0.32 0.40 0.39 0.33 0.38 0.42 0.42 0.38
0.08 0.05 0.04 0.05 0.06 0.06 0.05 0.07 0.17 0.21 0.32 0.40 0.57 0.43 0.43 0.36 0.27 0.31 0.53 0.61 0.72 0.74 0.52 0.33 0.26 0.27 0.37
0.22 0.09 0.05 0.06 0.10 0.15 0.29 0.23 0.32 0.23 0.23 0.31 0.47 0.51 0.38 0.33 0.48 0.47 0.54 0.85 0.90 0.97 0.87 0.52 0.39 0.31 0.22
0.16 0.13 0.09 0.10 0.12 0.19 0.40 0.39 0.38 0.33 0.28 0.26 0.30 0.33 0.35 0.45 0.49 0.58 0.70 0.72 0.96 1.28 1.08 0.70 0.65 0.51 0.40
0.15 0.16 0.24 0.23 0.27 0.28 0.33 0.37 0.38 0.33 0.34 0.32 0.31 0.27 0.29 0.29 0.53 0.75 0.69 0.76 1.04 1.18 1.14 0.46 0.63 0.78 0.62
0.25 0.30 0.30 0.28 0.30 0.32 0.30 0.31 0.28 0.26 0.16 0.13 0.21 0.27 0.30 0.23 0.29 0.65 0.67 0.73 0.69 0.74 0.75 0.43 0.52 0.84 0.66

GFSFLT2_prec_precacc24_042.txt.gz
Total_Precipitation_Accumulation
0.00 0.00 0.00 0.00 0.00 0.00 0.00 0.00 0.00 0.00 0.02 0.02 0.03 0.03 0.03 0.03 0.05 0.06 0.08 0.15 0.22 0.30 0.39 0.48 0.60 0.69 0.67
0.01 0.00 0.00 0.00 0.00 0.00 0.00 0.01 0.01 0.01 0.01 0.00 0.00 0.01 0.01 0.02 0.04 0.06 0.05 0.05 0.10 0.21 0.32 0.40 0.45 0.51 0.62
0.02 0.00 0.00 0.00 0.00 0.01 0.01 0.00 0.00 0.00 0.00 0.00 0.00 0.00 0.01 0.02 0.03 0.06 0.10 0.12 0.13 0.12 0.19 0.34 0.45 0.55 0.63
0.12 0.10 0.05 0.04 0.05 0.03 0.00 0.00 0.00 0.00 0.00 0.00 0.00 0.00 0.00 0.01 0.02 0.03 0.03 0.03 0.04 0.05 0.07 0.11 0.21 0.33 0.51
0.21 0.23 0.17 0.05 0.01 0.00 0.01 0.01 0.01 0.01 0.01 0.00 0.01 0.01 0.01 0.01 0.01 0.01 0.01 0.02 0.03 0.05 0.08 0.14 0.22 0.29 0.38
0.42 0.19 0.03 0.01 0.01 0.03 0.09 0.11 0.09 0.01 0.04 0.03 0.02 0.01 0.00 0.00 0.01 0.02 0.03 0.06 0.07 0.09 0.12 0.14 0.15 0.22 0.36
0.05 0.04 0.04 0.05 0.19 0.23 0.19 0.23 0.18 0.04 0.05 0.05 0.01 0.02 0.01 0.01 0.01 0.01 0.03 0.04 0.06 0.07 0.09 0.12 0.13 0.17 0.28
0.03 0.04 0.09 0.11 0.15 0.27 0.31 0.18 0.06 0.02 0.04 0.18 0.04 0.02 0.01 0.01 0.01 0.01 0.02 0.04 0.06 0.09 0.11 0.12 0.16 0.24 0.27
0.06 0.05 0.03 0.02 0.02 0.23 0.30 0.25 0.16 0.02 0.03 0.12 0.08 0.06 0.04 0.01 0.00 0.02 0.06 0.11 0.15 0.15 0.16 0.23 0.29 0.31 0.35
0.01 0.00 0.00 0.00 0.01 0.11 0.46 0.75 0.35 0.21 0.03 0.29 0.19 0.14 0.34 0.04 0.01 0.04 0.03 0.03 0.05 0.06 0.07 0.11 0.18 0.23 0.29
0.00 0.00 0.00 0.01 0.02 0.06 0.24 0.68 0.80 0.47 0.03 0.48 0.54 0.14 0.32 0.12 0.01 0.00 0.02 0.05 0.07 0.11 0.13 0.15 0.15 0.17 0.26
0.02 0.02 0.02 0.03 0.03 0.03 0.06 0.15 0.31 0.62 0.26 0.38 0.77 0.31 0.40 0.17 0.05 0.04 0.07 0.13 0.26 0.24 0.21 0.28 0.36 0.39 0.39
0.08 0.04 0.04 0.04 0.05 0.05 0.04 0.05 0.13 0.16 0.26 0.31 0.49 0.33 0.33 0.29 0.20 0.14 0.33 0.40 0.54 0.64 0.47 0.31 0.26 0.28 0.39
0.19 0.08 0.04 0.05 0.09 0.12 0.24 0.17 0.24 0.15 0.14 0.18 0.34 0.40 0.28 0.21 0.43 0.33 0.39 0.79 0.80 0.91 0.87 0.50 0.39 0.31 0.23
0.14 0.12 0.08 0.09 0.10 0.13 0.30 0.27 0.28 0.23 0.17 0.13 0.17 0.22 0.27 0.37 0.38 0.47 0.64 0.66 0.96 1.31 1.06 0.69 0.64 0.51 0.40
0.13 0.15 0.21 0.20 0.22 0.19 0.21 0.23 0.26 0.21 0.22 0.19 0.20 0.19 0.22 0.25 0.52 0.76 0.69 0.79 1.11 1.27 1.21 0.49 0.65 0.78 0.62
0.21 0.25 0.26 0.23 0.22 0.21 0.18 0.17 0.15 0.15 0.09 0.09 0.19 0.25 0.29 0.22 0.28 0.66 0.77 0.81 0.73 0.79 0.81 0.50 0.56 0.86 0.66

GFSFLT2_prec_precacc24_045.txt.gz
Total_Precipitation_Accumulation
0.00 0.00 0.00 0.00 0.00 0.00 0.00 0.00 0.00 0.00 0.01 0.01 0.02 0.01 0.01 0.01 0.02 0.04 0.07 0.10 0.13 0.17 0.27 0.42 0.55 0.66 0.66
0.00 0.00 0.00 0.00 0.00 0.00 0.00 0.01 0.01 0.01 0.01 0.00 0.00 0.00 0.00 0.01 0.02 0.04 0.04 0.05 0.07 0.11 0.15 0.18 0.26 0.40 0.56
0.02 0.00 0.01 0.01 0.00 0.01 0.01 0.00 0.00 0.00 0.00 0.00 0.00 0.00 0.00 0.01 0.02 0.05 0.09 0.12 0.13 0.12 0.14 0.16 0.19 0.23 0.33
0.15 0.13 0.06 0.03 0.05 0.03 0.00 0.00 0.00 0.00 0.00 0.00 0.00 0.00 0.00 0.01 0.02 0.02 0.03 0.03 0.04 0.05 0.06 0.07 0.08 0.09 0.12
0.24 0.22 0.17 0.05 0.00 0.00 0.01 0.01 0.01 0.01 0.01 0.00 0.01 0.01 0.01 0.01 0.01 0.00 0.01 0.02 0.04 0.06 0.08 0.11 0.12 0.11 0.09
0.40 0.17 0.02 0.01 0.01 0.04 0.11 0.11 0.09 0.01 0.03 0.03 0.02 0.01 0.00 0.00 0.00 0.01 0.03 0.06 0.07 0.10 0.13 0.15 0.15 0.14 0.16
0.04 0.02 0.02 0.05 0.20 0.23 0.16 0.18 0.14 0.03 0.04 0.04 0.01 0.01 0.01 0.01 0.01 0.01 0.02 0.04 0.06 0.08 0.10 0.12 0.12 0.11 0.11
0.02 0.03 0.08 0.10 0.11 0.20 0.25 0.16 0.06 0.01 0.03 0.17 0.04 0.02 0.01 0.01 0.01 0.01 0.02 0.04 0.06 0.09 0.10 0.10 0.09 0.10 0.09
0.06 0.03 0.01 0.00 0.01 0.22 0.26 0.21 0.13 0.02 0.02 0.11 0.07 0.05 0.03 0.01 0.00 0.01 0.06 0.11 0.14 0.15 0.15 0.17 0.17 0.16 0.12
0.01 0.00 0.00 0.00 0.00 0.08 0.35 0.63 0.27 0.19 0.02 0.29 0.17 0.10 0.31 0.02 0.01 0.04 0.03 0.02 0.03 0.03 0.05 0.08 0.10 0.11 0.14
0.00 0.00 0.00 0.01 0.01 0.03 0.16 0.58 0.73 0.45 0.03 0.50 0.54 0.13 0.32 0.12 0.01 0.00 0.00 0.01 0.04 0.03 0.04 0.06 0.09 0.11 0.17
0.02 0.01 0.02 0.03 0.02 0.02 0.04 0.11 0.26 0.56 0.24 0.38 0.77 0.33 0.43 0.18 0.04 0.00 0.01 0.06 0.22 0.17 0.12 0.14 0.24 0.32 0.31
0.07 0.04 0.04 0.04 0.05 0.05 0.03 0.04 0.09 0.11 0.23 0.29 0.49 0.33 0.32 0.30 0.22 0.06 0.21 0.23 0.39 0.54 0.40 0.25 0.23 0.24 0.35
0.16 0.06 0.04 0.05 0.08 0.10 0.21 0.15 0.20 0.10 0.10 0.16 0.33 0.39 0.28 0.18 0.42 0.25 0.27 0.69 0.66 0.78 0.81 0.42 0.32 0.25 0.19
0.12 0.12 0.08 0.08 0.09 0.11 0.26 0.22 0.22 0.18 0.13 0.08 0.11 0.15 0.21 0.30 0.30 0.36 0.57 0.56 0.83 1.21 1.00 0.60 0.51 0.43 0.36
0.12 0.14 0.19 0.16 0.18 0.15 0.15 0.18 0.20 0.15 0.16 0.13 0.13 0.12 0.15 0.16 0.42 0.67 0.58 0.72 0.99 1.18 1.17 0.46 0.57 0.73 0.60
0.17 0.21 0.22 0.18 0.16 0.15 0.13 0.12 0.09 0.10 0.07 0.07 0.18 0.25 0.25 0.17 0.22 0.61 0.79 0.80 0.69 0.74 0.79 0.51 0.56 0.84 0.65

GFSFLT2_prec_precacc24_048.txt.gz
Total_Precipitation_Accumulation
0.00 0.00 0.00 0.00 0.00 0.00 0.00 0.00 0.00 0.00 0.01 0.01 0.02 0.01 0.01 0.01 0.02 0.04 0.07 0.10 0.12 0.15 0.17 0.21 0.28 0.35 0.40
0.00 0.00 0.00 0.00 0.00 0.00 0.00 0.01 0.01 0.01 0.01 0.00 0.00 0.00 0.00 0.01 0.02 0.04 0.05 0.05 0.06 0.10 0.13 0.15 0.17 0.21 0.25
0.01 0.00 0.01 0.01 0.00 0.01 0.01 0.00 0.00 0.00 0.00 0.00 0.00 0.00 0.01 0.01 0.02 0.05 0.10 0.12 0.13 0.12 0.14 0.15 0.17 0.20 0.23
0.15 0.14 0.06 0.03 0.05 0.02 0.00 0.00 0.00 0.00 0.00 0.00 0.00 0.00 0.00 0.01 0.02 0.02 0.03 0.03 0.04 0.04 0.06 0.07 0.08 0.10 0.12
0.27 0.21 0.16 0.04 0.00 0.00 0.01 0.01 0.01 0.00 0.00 0.00 0.01 0.01 0.00 0.00 0.00 0.00 0.01 0.02 0.03 0.06 0.09 0.12 0.12 0.12 0.10
0.38 0.16 0.01 0.00 0.00 0.04 0.11 0.10 0.08 0.01 0.03 0.02 0.01 0.00 0.00 0.00 0.00 0.01 0.03 0.06 0.07 0.10 0.13 0.16 0.16 0.16 0.17
0.03 0.01 0.01 0.05 0.22 0.24 0.15 0.15 0.11 0.02 0.02 0.03 0.01 0.01 0.00 0.01 0.01 0.01 0.02 0.04 0.06 0.08 0.10 0.13 0.13 0.13 0.13
0.01 0.02 0.08 0.10 0.09 0.14 0.19 0.14 0.04 0.01 0.02 0.11 0.03 0.01 0.00 0.00 0.01 0.01 0.02 0.04 0.06 0.09 0.11 0.11 0.11 0.12 0.11
0.06 0.03 0.01 0.00 0.01 0.20 0.21 0.17 0.10 0.01 0.01 0.08 0.06 0.02 0.01 0.00 0.00 0.01 0.06 0.10 0.14 0.14 0.16 0.18 0.20 0.18 0.14
0.01 0.00 0.00 0.00 0.00 0.05 0.26 0.53 0.22 0.17 0.01 0.25 0.15 0.08 0.29 0.02 0.00 0.04 0.03 0.01 0.02 0.03 0.05 0.09 0.11 0.14 0.17
0.00 0.00 0.00 0.00 0.01 0.02 0.12 0.51 0.66 0.40 0.02 0.47 0.51 0.11 0.28 0.10 0.01 0.00 0.00 0.01 0.04 0.02 0.02 0.04 0.08 0.13 0.23
0.01 0.01 0.01 0.02 0.02 0.02 0.03 0.10 0.23 0.51 0.21 0.33 0.74 0.33 0.44 0.18 0.03 0.00 0.00 0.03 0.18 0.14 0.10 0.08 0.13 0.21 0.27
0.06 0.03 0.03 0.04 0.04 0.04 0.03 0.03 0.06 0.09 0.19 0.24 0.46 0.33 0.31 0.30 0.25 0.05 0.16 0.11 0.30 0.51 0.37 0.23 0.20 0.17 0.22
0.13 0.05 0.04 0.05 0.07 0.09 0.17 0.11 0.15 0.05 0.05 0.11 0.29 0.37 0.28 0.14 0.40 0.21 0.18 0.56 0.52 0.70 0.75 0.33 0.20 0.13 0.07
0.10 0.10 0.06 0.06 0.06 0.08 0.19 0.16 0.16 0.13 0.08 0.04 0.06 0.09 0.14 0.24 0.24 0.29 0.48 0.44 0.68 1.09 0.97 0.54 0.42 0.36 0.27
0.08 0.10 0.14 0.11 0.13 0.09 0.08 0.11 0.14 0.09 0.09 0.06 0.08 0.06 0.08 0.10 0.35 0.60 0.47 0.55 0.83 1.08 1.16 0.47 0.50 0.63 0.50
0.11 0.14 0.17 0.11 0.08 0.08 0.06 0.06 0.05 0.08 0.05 0.06 0.16 0.20 0.18 0.10 0.13 0.50 0.73 0.70 0.61 0.67 0.76 0.51 0.54 0.76 0.60

GFSFLT2_prec_precacc24_051.txt.gz
Total_Precipitation_Accumulation
0.00 0.00 0.00 0.00 0.00 0.00 0.00 0.00 0.00 0.00 0.01 0.01 0.02 0.01 0.01 0.01 0.02 0.04 0.08 0.10 0.12 0.15 0.17 0.21 0.25 0.27 0.29
0.00 0.00 0.00 0.00 0.00 0.00 0.00 0.01 0.01 0.01 0.01 0.00 0.00 0.00 0.00 0.01 0.02 0.05 0.05 0.05 0.07 0.11 0.14 0.16 0.17 0.18 0.20
0.01 0.00 0.01 0.01 0.01 0.01 0.01 0.00 0.00 0.00 0.00 0.00 0.00 0.00 0.01 0.01 0.02 0.05 0.10 0.12 0.13 0.12 0.14 0.16 0.18 0.20 0.21
0.14 0.14 0.06 0.03 0.04 0.02 0.00 0.00 0.00 0.00 0.00 0.00 0.00 0.00 0.00 0.01 0.01 0.02 0.02 0.03 0.04 0.04 0.05 0.07 0.09 0.10 0.12
0.27 0.19 0.14 0.04 0.00 0.00 0.00 0.01 0.01 0.00 0.00 0.00 0.00 0.00 0.00 0.00 0.00 0.00 0.01 0.02 0.03 0.06 0.09 0.12 0.13 0.12 0.11
0.33 0.13 0.01 0.00 0.00 0.04 0.11 0.11 0.08 0.01 0.01 0.01 0.00 0.00 0.00 0.00 0.00 0.01 0.03 0.05 0.07 0.10 0.14 0.16 0.17 0.16 0.18
0.02 0.00 0.01 0.04 0.22 0.23 0.13 0.13 0.10 0.01 0.02 0.02 0.00 0.00 0.00 0.00 0.01 0.01 0.02 0.04 0.06 0.08 0.10 0.13 0.14 0.13 0.14
0.01 0.02 0.07 0.10 0.10 0.13 0.16 0.12 0.03 0.00 0.00 0.08 0.01 0.00 0.00 0.00 0.00 0.01 0.02 0.03 0.05 0.08 0.10 0.11 0.12 0.14 0.13
0.06 0.03 0.01 0.00 0.01 0.20 0.19 0.15 0.08 0.00 0.00 0.05 0.03 0.01 0.00 0.00 0.00 0.00 0.05 0.08 0.11 0.12 0.13 0.17 0.20 0.19 0.16
0.01 0.00 0.00 0.00 0.00 0.05 0.22 0.47 0.18 0.16 0.00 0.23 0.12 0.07 0.28 0.02 0.00 0.03 0.02 0.00 0.01 0.02 0.05 0.08 0.11 0.14 0.18
0.00 0.00 0.00 0.00 0.00 0.02 0.11 0.46 0.59 0.37 0.02 0.47 0.48 0.10 0.26 0.09 0.01 0.00 0.00 0.01 0.03 0.02 0.02 0.04 0.09 0.14 0.28
0.01 0.00 0.01 0.02 0.02 0.02 0.03 0.09 0.21 0.47 0.19 0.31 0.68 0.31 0.43 0.19 0.03 0.00 0.00 0.02 0.17 0.12 0.10 0.09 0.13 0.17 0.23
0.05 0.03 0.03 0.04 0.04 0.03 0.02 0.03 0.05 0.07 0.15 0.15 0.39 0.31 0.31 0.32 0.27 0.05 0.15 0.07 0.23 0.46 0.35 0.23 0.20 0.17 0.20
0.11 0.04 0.03 0.03 0.05 0.06 0.11 0.07 0.09 0.01 0.01 0.06 0.23 0.34 0.30 0.13 0.39 0.20 0.15 0.49 0.40 0.59 0.68 0.26 0.16 0.12 0.08
0.08 0.07 0.03 0.03 0.03 0.03 0.11 0.11 0.12 0.09 0.05 0.01 0.03 0.06 0.10 0.20 0.21 0.24 0.45 0.36 0.51 0.92 0.88 0.39 0.20 0.14 0.08
0.05 0.06 0.08 0.06 0.07 0.03 0.04 0.09 0.13 0.08 0.08 0.04 0.05 0.03 0.02 0.04 0.30 0.53 0.41 0.45 0.62 0.85 0.99 0.42 0.36 0.42 0.32
0.08 0.11 0.14 0.09 0.05 0.06 0.06 0.06 0.06 0.08 0.05 0.06 0.12 0.15 0.15 0.06 0.07 0.42 0.67 0.59 0.48 0.55 0.67 0.49 0.52 0.66 0.49

GFSFLT2_prec_precacc24_057.txt.gz
Total_Precipitation_Accumulation
0.00 0.00 0.00 0.00 0.00 0.00 0.00 0.00 0.00 0.00 0.01 0.01 0.01 0.01 0.01 0.01 0.02 0.03 0.07 0.10 0.12 0.16 0.19 0.24 0.31 0.34 0.34
0.00 0.00 0.00 0.00 0.00 0.00 0.00 0.01 0.01 0.00 0.00 0.00 0.00 0.00 0.01 0.01 0.02 0.04 0.05 0.05 0.06 0.10 0.13 0.15 0.16 0.18 0.21
0.00 0.00 0.00 0.01 0.01 0.00 0.00 0.00 0.00 0.00 0.00 0.00 0.00 0.00 0.01 0.01 0.02 0.04 0.08 0.09 0.09 0.08 0.10 0.12 0.15 0.18 0.20
0.09 0.10 0.06 0.02 0.02 0.00 0.00 0.00 0.00 0.00 0.00 0.00 0.00 0.00 0.00 0.00 0.00 0.00 0.01 0.02 0.02 0.03 0.03 0.05 0.07 0.09 0.12
0.23 0.14 0.07 0.01 0.00 0.00 0.00 0.01 0.01 0.00 0.00 0.00 0.00 0.00 0.00 0.00 0.00 0.00 0.00 0.01 0.01 0.03 0.05 0.07 0.09 0.11 0.10
0.20 0.08 0.01 0.00 0.00 0.04 0.10 0.10 0.07 0.00 0.00 0.01 0.00 0.00 0.00 0.00 0.00 0.00 0.01 0.01 0.02 0.05 0.09 0.14 0.15 0.17 0.19
0.02 0.00 0.00 0.04 0.20 0.19 0.10 0.08 0.07 0.01 0.01 0.02 0.00 0.00 0.00 0.00 0.00 0.00 0.01 0.02 0.02 0.04 0.07 0.10 0.12 0.14 0.16
0.00 0.01 0.07 0.08 0.08 0.16 0.14 0.08 0.02 0.00 0.00 0.06 0.00 0.00 0.00 0.00 0.00 0.00 0.00 0.01 0.02 0.05 0.07 0.09 0.11 0.14 0.14
0.04 0.03 0.01 0.00 0.00 0.17 0.12 0.11 0.05 0.00 0.00 0.04 0.02 0.00 0.00 0.00 0.00 0.00 0.00 0.01 0.02 0.05 0.08 0.13 0.17 0.19 0.16
0.01 0.00 0.00 0.00 0.00 0.04 0.16 0.36 0.13 0.14 0.00 0.21 0.09 0.06 0.23 0.01 0.00 0.00 0.00 0.00 0.00 0.01 0.03 0.07 0.09 0.12 0.17
0.00 0.00 0.00 0.00 0.00 0.01 0.06 0.33 0.43 0.28 0.01 0.42 0.42 0.06 0.22 0.07 0.00 0.00 0.00 0.01 0.03 0.02 0.02 0.04 0.09 0.15 0.32
0.00 0.00 0.00 0.01 0.01 0.01 0.02 0.04 0.13 0.32 0.12 0.21 0.59 0.25 0.38 0.18 0.03 0.00 0.00 0.02 0.15 0.11 0.09 0.09 0.14 0.18 0.25
0.02 0.01 0.01 0.01 0.01 0.01 0.01 0.01 0.02 0.03 0.07 0.06 0.28 0.27 0.32 0.35 0.28 0.05 0.11 0.04 0.11 0.25 0.26 0.22 0.20 0.17 0.21
0.05 0.01 0.01 0.01 0.01 0.02 0.05 0.03 0.05 0.00 0.00 0.02 0.14 0.31 0.35 0.14 0.35 0.18 0.08 0.40 0.29 0.35 0.44 0.21 0.14 0.11 0.09
0.04 0.04 0.02 0.01 0.01 0.01 0.04 0.08 0.09 0.04 0.02 0.00 0.00 0.03 0.10 0.15 0.17 0.15 0.34 0.25 0.33 0.53 0.50 0.20 0.06 0.04 0.02
0.04 0.03 0.06 0.04 0.05 0.02 0.02 0.06 0.08 0.04 0.04 0.02 0.02 0.04 0.01 0.00 0.17 0.38 0.27 0.30 0.39 0.52 0.48 0.24 0.13 0.07 0.01
0.05 0.07 0.12 0.08 0.03 0.03 0.03 0.04 0.03 0.03 0.02 0.04 0.08 0.15 0.16 0.04 0.01 0.20 0.54 0.42 0.31 0.36 0.37 0.33 0.30 0.19 0.08

GFSFLT2_prec_precacc24_060.txt.gz
Total_Precipitation_Accumulation
0.00 0.00 0.00 0.00 0.00 0.00 0.00 0.00 0.00 0.00 0.00 0.00 0.00 0.00 0.00 0.01 0.02 0.03 0.07 0.10 0.13 0.16 0.19 0.25 0.32 0.35 0.35
0.00 0.00 0.00 0.00 0.00 0.00 0.00 0.00 0.00 0.00 0.00 0.00 0.00 0.00 0.01 0.01 0.02 0.04 0.05 0.05 0.06 0.10 0.13 0.15 0.16 0.19 0.23
0.00 0.00 0.00 0.01 0.01 0.00 0.00 0.00 0.00 0.00 0.00 0.00 0.00 0.00 0.01 0.01 0.02 0.04 0.07 0.08 0.07 0.07 0.09 0.10 0.13 0.16 0.19
0.06 0.08 0.06 0.02 0.01 0.00 0.00 0.00 0.00 0.00 0.00 0.00 0.00 0.00 0.00 0.00 0.00 0.00 0.01 0.02 0.02 0.03 0.03 0.05 0.07 0.10 0.13
0.20 0.11 0.03 0.00 0.00 0.00 0.00 0.01 0.01 0.00 0.00 0.00 0.00 0.00 0.00 0.00 0.00 0.00 0.00 0.01 0.01 0.03 0.04 0.06 0.08 0.10 0.10
0.10 0.03 0.00 0.00 0.00 0.03 0.08 0.06 0.06 0.00 0.00 0.01 0.00 0.00 0.00 0.00 0.00 0.00 0.00 0.01 0.02 0.04 0.08 0.11 0.13 0.15 0.18
0.02 0.00 0.00 0.04 0.14 0.14 0.09 0.09 0.06 0.01 0.01 0.01 0.00 0.00 0.00 0.00 0.00 0.00 0.00 0.01 0.02 0.04 0.07 0.10 0.11 0.13 0.14
0.00 0.01 0.06 0.06 0.08 0.18 0.13 0.06 0.02 0.00 0.00 0.04 0.00 0.00 0.00 0.00 0.00 0.00 0.00 0.01 0.02 0.03 0.05 0.07 0.10 0.13 0.14
0.03 0.02 0.01 0.00 0.00 0.12 0.08 0.09 0.05 0.00 0.00 0.02 0.01 0.00 0.00 0.00 0.00 0.00 0.00 0.01 0.01 0.02 0.04 0.07 0.10 0.14 0.14
0.01 0.00 0.00 0.00 0.00 0.02 0.10 0.30 0.12 0.13 0.00 0.18 0.07 0.04 0.20 0.01 0.00 0.00 0.00 0.00 0.00 0.01 0.03 0.06 0.07 0.11 0.16
0.00 0.00 0.00 0.00 0.00 0.00 0.03 0.25 0.36 0.24 0.01 0.37 0.38 0.05 0.20 0.06 0.00 0.00 0.00 0.01 0.03 0.02 0.02 0.04 0.08 0.15 0.31
0.00 0.00 0.00 0.00 0.00 0.00 0.01 0.02 0.08 0.23 0.08 0.16 0.53 0.21 0.35 0.17 0.03 0.00 0.00 0.02 0.12 0.08 0.06 0.08 0.13 0.18 0.25
0.02 0.01 0.00 0.00 0.00 0.00 0.00 0.00 0.00 0.01 0.02 0.02 0.23 0.22 0.31 0.35 0.28 0.05 0.08 0.03 0.05 0.16 0.19 0.19 0.19 0.17 0.20
0.03 0.01 0.00 0.01 0.01 0.01 0.04 0.02 0.05 0.00 0.00 0.01 0.09 0.26 0.36 0.15 0.33 0.17 0.06 0.29 0.19 0.23 0.31 0.16 0.14 0.11 0.09
0.04 0.04 0.02 0.01 0.01 0.00 0.03 0.07 0.09 0.02 0.01 0.00 0.00 0.02 0.09 0.14 0.15 0.10 0.25 0.18 0.24 0.38 0.33 0.15 0.05 0.04 0.02
0.03 0.03 0.05 0.03 0.04 0.02 0.02 0.06 0.07 0.03 0.03 0.01 0.01 0.04 0.01 0.00 0.12 0.25 0.17 0.22 0.29 0.38 0.34 0.24 0.10 0.05 0.01
0.05 0.05 0.11 0.09 0.03 0.03 0.03 0.04 0.03 0.02 0.02 0.02 0.07 0.16 0.17 0.04 0.00 0.08 0.44 0.34 0.21 0.23 0.25 0.25 0.23 0.09 0.04

GFSFLT2_prec_precacc24_063.txt.gz
Total_Precipitation_Accumulation
0.00 0.00 0.00 0.00 0.00 0.00 0.00 0.00 0.00 0.00 0.00 0.00 0.00 0.00 0.00 0.01 0.01 0.03 0.07 0.10 0.13 0.16 0.19 0.24 0.31 0.33 0.33
0.00 0.00 0.00 0.00 0.00 0.00 0.00 0.00 0.00 0.00 0.00 0.00 0.00 0.00 0.01 0.01 0.02 0.04 0.05 0.05 0.06 0.09 0.12 0.14 0.15 0.17 0.22
0.00 0.00 0.00 0.01 0.01 0.00 0.00 0.00 0.00 0.00 0.00 0.00 0.00 0.00 0.01 0.01 0.02 0.03 0.04 0.04 0.04 0.05 0.06 0.08 0.10 0.13 0.16
0.05 0.07 0.05 0.01 0.00 0.00 0.00 0.00 0.00 0.00 0.00 0.00 0.00 0.00 0.00 0.00 0.00 0.00 0.00 0.01 0.02 0.02 0.03 0.04 0.07 0.10 0.12
0.16 0.06 0.01 0.00 0.00 0.00 0.00 0.01 0.00 0.00 0.00 0.00 0.00 0.00 0.00 0.00 0.00 0.00 0.00 0.01 0.01 0.03 0.04 0.06 0.07 0.10 0.10
0.05 0.03 0.00 0.00 0.00 0.03 0.06 0.05 0.05 0.00 0.00 0.00 0.00 0.00 0.00 0.00 0.00 0.00 0.00 0.01 0.01 0.03 0.06 0.09 0.12 0.13 0.16
0.02 0.00 0.00 0.02 0.09 0.11 0.09 0.10 0.06 0.01 0.00 0.00 0.00 0.00 0.00 0.00 0.00 0.00 0.00 0.01 0.02 0.03 0.05 0.08 0.10 0.12 0.13
0.00 0.01 0.05 0.04 0.08 0.19 0.11 0.04 0.01 0.00 0.00 0.02 0.00 0.00 0.00 0.00 0.00 0.00 0.00 0.00 0.01 0.02 0.04 0.05 0.08 0.11 0.13
0.02 0.02 0.01 0.00 0.00 0.06 0.05 0.07 0.04 0.00 0.00 0.02 0.00 0.00 0.00 0.00 0.00 0.00 0.00 0.00 0.01 0.01 0.03 0.05 0.07 0.11 0.12
0.01 0.00 0.00 0.00 0.00 0.01 0.05 0.25 0.11 0.13 0.00 0.15 0.06 0.04 0.15 0.01 0.00 0.00 0.00 0.00 0.00 0.00 0.02 0.05 0.06 0.08 0.10
0.00 0.00 0.00 0.00 0.00 0.00 0.01 0.18 0.29 0.21 0.01 0.33 0.34 0.05 0.19 0.05 0.00 0.00 0.00 0.01 0.03 0.01 0.01 0.03 0.07 0.14 0.30
0.00 0.00 0.00 0.00 0.00 0.00 0.00 0.01 0.05 0.15 0.03 0.13 0.51 0.17 0.31 0.17 0.03 0.00 0.00 0.01 0.05 0.04 0.04 0.06 0.11 0.16 0.24
0.01 0.01 0.00 0.00 0.00 0.00 0.00 0.00 0.00 0.00 0.00 0.02 0.22 0.20 0.28 0.33 0.27 0.05 0.03 0.01 0.01 0.06 0.12 0.14 0.16 0.16 0.19
0.03 0.01 0.00 0.01 0.01 0.01 0.04 0.02 0.05 0.00 0.00 0.01 0.07 0.23 0.35 0.13 0.26 0.14 0.02 0.17 0.13 0.12 0.17 0.09 0.10 0.10 0.09
0.04 0.04 0.02 0.01 0.01 0.00 0.03 0.07 0.09 0.02 0.01 0.00 0.00 0.02 0.08 0.10 0.10 0.05 0.16 0.12 0.14 0.19 0.17 0.12 0.04 0.04 0.02
0.03 0.03 0.05 0.03 0.04 0.02 0.02 0.07 0.07 0.02 0.02 0.01 0.01 0.04 0.01 0.00 0.06 0.15 0.09 0.14 0.14 0.17 0.20 0.24 0.09 0.04 0.01
0.04 0.05 0.10 0.09 0.03 0.03 0.03 0.04 0.03 0.01 0.01 0.01 0.08 0.19 0.21 0.04 0.00 0.03 0.31 0.25 0.12 0.13 0.16 0.19 0.17 0.04 0.03

GFSFLT2_prec_precacc24_069.txt.gz
Total_Precipitation_Accumulation
0.00 0.00 0.00 0.00 0.00 0.00 0.00 0.00 0.00 0.00 0.00 0.00 0.00 0.00 0.01 0.01 0.01 0.01 0.03 0.06 0.08 0.11 0.15 0.20 0.26 0.29 0.28
0.00 0.00 0.00 0.00 0.00 0.00 0.00 0.00 0.00 0.00 0.00 0.00 0.00 0.00 0.01 0.01 0.01 0.02 0.03 0.04 0.04 0.05 0.07 0.09 0.09 0.12 0.17
0.00 0.00 0.00 0.00 0.00 0.00 0.00 0.00 0.00 0.00 0.00 0.00 0.00 0.00 0.01 0.01 0.01 0.01 0.01 0.01 0.01 0.01 0.02 0.02 0.03 0.06 0.09
0.01 0.02 0.02 0.01 0.00 0.00 0.00 0.00 0.00 0.00 0.00 0.00 0.00 0.00 0.00 0.00 0.00 0.00 0.00 0.00 0.01 0.02 0.02 0.03 0.04 0.07 0.08
0.08 0.03 0.01 0.00 0.00 0.00 0.00 0.00 0.00 0.00 0.00 0.00 0.00 0.00 0.00 0.00 0.00 0.00 0.00 0.00 0.01 0.02 0.03 0.05 0.07 0.10 0.11
0.05 0.03 0.00 0.00 0.00 0.01 0.02 0.04 0.04 0.00 0.00 0.00 0.00 0.00 0.00 0.00 0.00 0.00 0.00 0.00 0.01 0.02 0.04 0.06 0.08 0.10 0.12
0.02 0.00 0.00 0.00 0.03 0.08 0.08 0.08 0.04 0.00 0.00 0.00 0.00 0.00 0.00 0.00 0.00 0.00 0.00 0.00 0.01 0.02 0.03 0.05 0.06 0.09 0.10
0.00 0.00 0.01 0.01 0.09 0.19 0.08 0.02 0.00 0.00 0.00 0.01 0.00 0.00 0.00 0.00 0.00 0.00 0.00 0.00 0.00 0.00 0.01 0.02 0.05 0.08 0.09
0.00 0.01 0.01 0.01 0.00 0.01 0.02 0.04 0.03 0.00 0.00 0.00 0.00 0.00 0.00 0.00 0.00 0.00 0.00 0.00 0.00 0.00 0.01 0.03 0.05 0.07 0.08
0.00 0.00 0.00 0.00 0.00 0.00 0.02 0.17 0.09 0.10 0.00 0.09 0.04 0.03 0.10 0.01 0.00 0.00 0.00 0.00 0.00 0.00 0.01 0.02 0.03 0.05 0.06
0.00 0.00 0.00 0.00 0.00 0.00 0.00 0.10 0.20 0.15 0.01 0.26 0.30 0.04 0.17 0.04 0.00 0.00 0.00 0.00 0.00 0.00 0.00 0.00 0.02 0.07 0.18
0.00 0.00 0.00 0.00 0.00 0.00 0.00 0.00 0.03 0.10 0.01 0.09 0.45 0.11 0.25 0.14 0.01 0.00 0.00 0.00 0.00 0.00 0.01 0.02 0.04 0.06 0.14
0.01 0.00 0.00 0.00 0.00 0.00 0.00 0.00 0.00 0.00 0.00 0.01 0.14 0.14 0.23 0.23 0.14 0.03 0.00 0.00 0.00 0.01 0.01 0.01 0.04 0.06 0.11
0.02 0.01 0.00 0.01 0.01 0.01 0.03 0.01 0.04 0.00 0.00 0.00 0.01 0.13 0.29 0.11 0.14 0.10 0.00 0.05 0.03 0.02 0.02 0.02 0.04 0.07 0.07
0.03 0.03 0.01 0.01 0.01 0.00 0.02 0.07 0.09 0.02 0.01 0.00 0.00 0.01 0.06 0.09 0.13 0.02 0.03 0.03 0.02 0.04 0.08 0.08 0.01 0.02 0.02
0.03 0.03 0.04 0.03 0.03 0.02 0.02 0.06 0.07 0.02 0.01 0.00 0.01 0.05 0.01 0.00 0.02 0.05 0.05 0.02 0.02 0.03 0.07 0.21 0.08 0.01 0.01
0.04 0.03 0.07 0.08 0.03 0.03 0.02 0.04 0.03 0.01 0.00 0.01 0.10 0.23 0.24 0.04 0.00 0.03 0.34 0.19 0.06 0.05 0.06 0.09 0.12 0.02 0.03

GFSFLT2_prec_precacc24_072.txt.gz
Total_Precipitation_Accumulation
0.11 0.05 0.02 0.01 0.00 0.00 0.00 0.00 0.00 0.00 0.00 0.00 0.00 0.00 0.00 0.01 0.01 0.01 0.02 0.05 0.07 0.09 0.13 0.17 0.24 0.27 0.26
0.01 0.01 0.00 0.00 0.00 0.00 0.00 0.00 0.00 0.00 0.00 0.00 0.00 0.00 0.01 0.01 0.01 0.01 0.02 0.03 0.04 0.04 0.04 0.05 0.06 0.09 0.14
0.00 0.00 0.00 0.00 0.00 0.00 0.00 0.00 0.00 0.00 0.00 0.00 0.00 0.00 0.00 0.01 0.01 0.01 0.01 0.01 0.01 0.01 0.01 0.02 0.02 0.04 0.07
0.00 0.00 0.01 0.01 0.00 0.00 0.00 0.00 0.00 0.00 0.00 0.00 0.00 0.00 0.00 0.00 0.00 0.00 0.00 0.00 0.01 0.01 0.02 0.02 0.04 0.06 0.08
0.02 0.02 0.01 0.00 0.00 0.00 0.00 0.00 0.00 0.00 0.00 0.00 0.00 0.00 0.00 0.00 0.00 0.00 0.00 0.00 0.01 0.02 0.03 0.04 0.06 0.10 0.12
0.04 0.02 0.00 0.00 0.00 0.00 0.01 0.03 0.04 0.00 0.00 0.00 0.00 0.00 0.00 0.00 0.00 0.00 0.00 0.00 0.01 0.02 0.03 0.05 0.07 0.10 0.11
0.01 0.00 0.00 0.00 0.00 0.06 0.07 0.07 0.04 0.00 0.00 0.00 0.00 0.00 0.00 0.00 0.00 0.00 0.00 0.00 0.00 0.01 0.02 0.04 0.05 0.08 0.10
0.00 0.00 0.00 0.00 0.08 0.19 0.07 0.01 0.00 0.00 0.00 0.01 0.00 0.00 0.00 0.00 0.00 0.00 0.00 0.00 0.00 0.00 0.01 0.01 0.04 0.06 0.08
0.00 0.01 0.01 0.01 0.00 0.00 0.01 0.04 0.03 0.00 0.00 0.00 0.00 0.00 0.00 0.00 0.00 0.00 0.00 0.00 0.00 0.00 0.00 0.01 0.03 0.05 0.05
0.00 0.00 0.00 0.00 0.00 0.00 0.01 0.14 0.09 0.10 0.00 0.09 0.03 0.02 0.09 0.00 0.00 0.00 0.00 0.00 0.00 0.00 0.00 0.00 0.01 0.02 0.02
0.00 0.00 0.00 0.00 0.00 0.00 0.00 0.07 0.17 0.14 0.00 0.25 0.29 0.04 0.16 0.04 0.00 0.00 0.00 0.00 0.00 0.00 0.00 0.00 0.01 0.03 0.11
0.00 0.00 0.00 0.00 0.00 0.00 0.00 0.00 0.02 0.08 0.01 0.09 0.42 0.10 0.23 0.13 0.01 0.00 0.00 0.00 0.00 0.00 0.01 0.02 0.03 0.04 0.06
0.00 0.00 0.00 0.00 0.00 0.00 0.00 0.00 0.00 0.00 0.00 0.01 0.13 0.12 0.22 0.21 0.10 0.02 0.00 0.00 0.00 0.00 0.01 0.01 0.01 0.02 0.08
0.01 0.00 0.00 0.00 0.00 0.00 0.02 0.01 0.04 0.00 0.00 0.00 0.00 0.10 0.25 0.10 0.11 0.09 0.00 0.02 0.00 0.01 0.01 0.01 0.01 0.03 0.05
0.02 0.03 0.01 0.01 0.01 0.00 0.02 0.06 0.09 0.01 0.01 0.00 0.00 0.00 0.05 0.09 0.13 0.02 0.00 0.00 0.00 0.01 0.05 0.06 0.01 0.01 0.01
0.03 0.02 0.04 0.02 0.03 0.02 0.02 0.06 0.07 0.02 0.01 0.00 0.01 0.05 0.01 0.00 0.02 0.04 0.04 0.01 0.00 0.01 0.04 0.19 0.07 0.00 0.01
0.03 0.03 0.06 0.07 0.02 0.03 0.02 0.04 0.03 0.01 0.01 0.01 0.10 0.22 0.24 0.04 0.00 0.02 0.31 0.17 0.04 0.03 0.01 0.06 0.10 0.02 0.02

GFSFLT2_prec_precacc24_075.txt.gz
Total_Precipitation_Accumulation
0.22 0.18 0.12 0.06 0.02 0.00 0.00 0.00 0.00 0.00 0.00 0.00 0.00 0.00 0.00 0.01 0.00 0.00 0.02 0.04 0.06 0.07 0.11 0.15 0.20 0.24 0.23
0.04 0.02 0.01 0.00 0.00 0.00 0.00 0.00 0.00 0.00 0.00 0.00 0.00 0.00 0.01 0.01 0.01 0.01 0.02 0.03 0.03 0.03 0.03 0.03 0.04 0.07 0.11
0.00 0.00 0.00 0.00 0.00 0.00 0.00 0.00 0.00 0.00 0.00 0.00 0.00 0.00 0.00 0.01 0.01 0.01 0.01 0.01 0.01 0.01 0.01 0.02 0.02 0.03 0.05
0.00 0.00 0.01 0.00 0.00 0.00 0.00 0.00 0.00 0.00 0.00 0.00 0.00 0.00 0.00 0.00 0.00 0.00 0.00 0.00 0.00 0.01 0.02 0.02 0.04 0.06 0.07
0.00 0.01 0.00 0.00 0.00 0.00 0.00 0.00 0.00 0.00 0.00 0.00 0.00 0.00 0.00 0.00 0.00 0.00 0.00 0.00 0.01 0.01 0.03 0.04 0.06 0.09 0.11
0.02 0.02 0.00 0.00 0.00 0.00 0.00 0.02 0.04 0.00 0.00 0.00 0.00 0.00 0.00 0.00 0.00 0.00 0.00 0.00 0.01 0.02 0.03 0.05 0.07 0.09 0.10
0.01 0.00 0.00 0.00 0.00 0.05 0.06 0.07 0.03 0.00 0.00 0.00 0.00 0.00 0.00 0.00 0.00 0.00 0.00 0.00 0.00 0.01 0.02 0.03 0.05 0.07 0.09
0.00 0.00 0.00 0.00 0.06 0.17 0.07 0.01 0.00 0.00 0.00 0.01 0.00 0.00 0.00 0.00 0.00 0.00 0.00 0.00 0.00 0.00 0.01 0.01 0.03 0.04 0.06
0.00 0.00 0.01 0.01 0.00 0.00 0.00 0.03 0.03 0.00 0.00 0.00 0.00 0.00 0.00 0.00 0.00 0.00 0.00 0.00 0.00 0.00 0.00 0.01 0.02 0.03 0.03
0.00 0.00 0.00 0.00 0.00 0.00 0.00 0.11 0.08 0.08 0.00 0.08 0.03 0.02 0.08 0.00 0.00 0.00 0.00 0.00 0.00 0.00 0.00 0.00 0.01 0.01 0.01
0.00 0.00 0.00 0.00 0.00 0.00 0.00 0.05 0.15 0.12 0.00 0.24 0.26 0.04 0.15 0.04 0.00 0.00 0.00 0.00 0.00 0.00 0.00 0.00 0.00 0.02 0.06
0.00 0.00 0.00 0.00 0.00 0.00 0.00 0.00 0.02 0.07 0.01 0.08 0.38 0.09 0.21 0.12 0.01 0.00 0.00 0.00 0.00 0.00 0.00 0.00 0.01 0.02 0.04
0.00 0.00 0.00 0.00 0.00 0.00 0.00 0.00 0.00 0.00 0.00 0.01 0.12 0.10 0.20 0.19 0.08 0.02 0.00 0.00 0.00 0.00 0.00 0.00 0.00 0.00 0.02
0.01 0.00 0.00 0.00 0.00 0.00 0.02 0.01 0.04 0.00 0.00 0.00 0.00 0.08 0.21 0.09 0.10 0.09 0.00 0.02 0.00 0.00 0.01 0.01 0.00 0.00 0.01
0.02 0.02 0.01 0.01 0.00 0.00 0.01 0.06 0.08 0.01 0.00 0.00 0.00 0.00 0.04 0.07 0.13 0.02 0.00 0.00 0.00 0.00 0.03 0.05 0.00 0.00 0.01
0.02 0.02 0.04 0.02 0.02 0.02 0.02 0.06 0.06 0.02 0.01 0.00 0.01 0.05 0.02 0.00 0.02 0.04 0.05 0.01 0.00 0.01 0.03 0.17 0.06 0.00 0.00
0.03 0.03 0.05 0.06 0.02 0.02 0.02 0.04 0.03 0.01 0.00 0.00 0.10 0.22 0.24 0.05 0.00 0.02 0.30 0.16 0.03 0.03 0.01 0.03 0.07 0.00 0.00

GFSFLT2_prec_precacc24_078.txt.gz
Total_Precipitation_Accumulation
0.32 0.21 0.13 0.06 0.02 0.00 0.00 0.00 0.00 0.00 0.00 0.00 0.00 0.00 0.00 0.01 0.01 0.01 0.02 0.04 0.05 0.07 0.10 0.14 0.17 0.20 0.19
0.04 0.02 0.01 0.00 0.00 0.00 0.00 0.00 0.00 0.00 0.00 0.00 0.00 0.00 0.00 0.01 0.01 0.01 0.02 0.03 0.03 0.03 0.03 0.03 0.04 0.06 0.10
0.00 0.00 0.00 0.00 0.00 0.00 0.00 0.00 0.00 0.00 0.00 0.00 0.00 0.00 0.00 0.01 0.01 0.01 0.00 0.00 0.01 0.01 0.01 0.01 0.02 0.03 0.05
0.00 0.00 0.00 0.00 0.00 0.00 0.00 0.00 0.00 0.00 0.00 0.00 0.00 0.00 0.00 0.00 0.00 0.00 0.00 0.00 0.00 0.01 0.02 0.02 0.03 0.05 0.07
0.00 0.00 0.00 0.00 0.00 0.00 0.00 0.00 0.00 0.00 0.00 0.00 0.00 0.00 0.00 0.00 0.00 0.00 0.00 0.00 0.01 0.02 0.03 0.04 0.05 0.09 0.11
0.00 0.01 0.00 0.00 0.00 0.00 0.00 0.01 0.02 0.00 0.00 0.00 0.00 0.00 0.00 0.00 0.00 0.00 0.00 0.00 0.01 0.02 0.03 0.05 0.06 0.08 0.10
0.00 0.00 0.00 0.00 0.00 0.04 0.05 0.06 0.03 0.00 0.00 0.00 0.00 0.00 0.00 0.00 0.00 0.00 0.00 0.00 0.00 0.01 0.02 0.03 0.04 0.06 0.08
0.00 0.00 0.00 0.00 0.04 0.13 0.06 0.01 0.00 0.00 0.00 0.00 0.00 0.00 0.00 0.00 0.00 0.00 0.00 0.00 0.00 0.00 0.01 0.01 0.02 0.03 0.05
0.00 0.00 0.01 0.00 0.00 0.00 0.00 0.02 0.02 0.00 0.00 0.00 0.00 0.00 0.00 0.00 0.00 0.00 0.00 0.00 0.00 0.00 0.00 0.01 0.01 0.02 0.02
0.00 0.00 0.00 0.00 0.00 0.00 0.00 0.06 0.07 0.07 0.00 0.06 0.02 0.02 0.07 0.00 0.00 0.00 0.00 0.00 0.00 0.00 0.00 0.00 0.01 0.00 0.00
0.00 0.00 0.00 0.00 0.00 0.00 0.00 0.03 0.12 0.10 0.00 0.22 0.22 0.03 0.13 0.03 0.00 0.00 0.00 0.00 0.00 0.00 0.00 0.00 0.00 0.01 0.03
0.00 0.00 0.00 0.00 0.00 0.00 0.00 0.00 0.02 0.06 0.00 0.08 0.34 0.08 0.19 0.11 0.01 0.00 0.00 0.00 0.00 0.00 0.00 0.00 0.00 0.01 0.02
0.00 0.00 0.00 0.00 0.00 0.00 0.00 0.00 0.00 0.00 0.00 0.01 0.11 0.09 0.19 0.17 0.07 0.01 0.00 0.00 0.00 0.00 0.00 0.00 0.00 0.00 0.01
0.01 0.00 0.00 0.00 0.00 0.00 0.01 0.01 0.03 0.00 0.00 0.00 0.00 0.08 0.19 0.08 0.09 0.08 0.00 0.02 0.00 0.00 0.00 0.01 0.00 0.00 0.01
0.01 0.02 0.01 0.01 0.00 0.00 0.01 0.04 0.07 0.01 0.00 0.00 0.00 0.01 0.04 0.06 0.10 0.02 0.00 0.00 0.00 0.00 0.03 0.04 0.00 0.00 0.00
0.02 0.02 0.03 0.02 0.02 0.01 0.02 0.05 0.05 0.01 0.01 0.00 0.00 0.04 0.02 0.00 0.01 0.03 0.04 0.01 0.00 0.00 0.03 0.15 0.06 0.00 0.00
0.02 0.02 0.05 0.05 0.03 0.02 0.02 0.03 0.03 0.01 0.00 0.01 0.09 0.20 0.23 0.04 0.00 0.02 0.29 0.16 0.02 0.02 0.01 0.03 0.05 0.00 0.00